Probability
0 0 3 19 19 10 0 0 0 0 0 3 3 3 6 13 13 26 29 42 55 55 71 74 77 74 77 65 68 68 68 65 61 55 55 58 55 55 58 58 58 61 58 52 48 58 58 58 65
0 3 6 6 6 0 0 0 0 0 0 0 3 3 10 16 26 26 35 61 61 61 71 68 77 81 71 68 68 71 71 68 58 61 55 52 48 55 48 55 55 55 58 61 52 58 55 55 65
3 3 0 6 0 0 0 0 0 0 0 0 3 6 13 23 26 32 39 61 55 71 77 81 81 81 74 68 68 71 68 65 65 58 58 52 48 48 48 48 48 48 52 52 52 58 55 61 61
10 3 6 0 0 0 0 0 0 0 0 0 3 6 23 26 26 32 39 48 58 74 74 71 81 77 74 71 68 65 61 61 58 58 52 48 48 52 45 42 42 45 45 45 48 48 52 52 48
6 3 3 0 0 0 0 0 0 0 0 0 3 13 23 23 26 26 45 45 45 61 65 65 77 74 74 71 65 61 58 61 61 58 52 48 48 48 45 45 42 45 45 39 42 48 45 45 42
3 0 3 0 0 0 0 0 0 0 3 6 10 16 19 23 32 32 39 35 48 61 65 65 74 77 74 65 65 65 65 58 61 52 48 52 48 48 42 42 45 52 45 39 39 42 45 48 45
3 0 0 0 0 0 0 0 3 3 3 6 6 13 26 26 29 29 39 35 52 65 68 61 61 68 71 65 61 68 65 65 55 55 48 48 48 42 35 39 42 45 42 35 39 35 39 42 42
0 0 0 0 0 0 0 0 3 3 3 3 6 23 19 32 29 32 35 39 42 65 65 52 52 61 61 58 65 68 71 58 52 48 42 48 45 45 39 42 45 39 39 29 32 35 35 35 35
0 0 0 0 0 0 0 0 0 3 0 3 13 26 32 32 26 29 35 45 48 55 55 52 52 58 58 55 58 65 61 58 58 52 48 48 48 45 45 42 45 45 35 32 35 35 35 32 32
0 0 0 0 0 0 0 0 0 0 0 0 6 26 35 35 26 29 39 45 55 58 55 55 48 52 58 45 58 61 48 52 52 58 52 58 58 61 45 42 48 45 42 42 45 45 48 32 29
0 0 0 0 0 0 0 0 0 0 0 0 6 26 35 39 35 42 45 52 58 58 55 55 58 61 61 58 52 68 65 65 65 61 58 61 58 55 52 55 52 48 48 42 45 48 39 35 29
0 0 0 0 0 0 0 0 0 0 0 0 10 16 35 39 39 35 52 52 55 58 58 65 61 61 65 68 65 61 61 68 68 68 58 55 65 68 55 55 58 52 45 52 45 48 32 35 32
0 0 0 0 0 0 0 0 0 0 0 3 6 16 19 35 35 35 42 52 55 52 65 68 61 74 77 74 68 61 65 61 68 68 58 58 61 61 58 61 61 58 52 48 55 42 35 39 32
0 0 0 0 0 0 0 0 0 0 3 3 10 16 26 26 32 42 52 58 58 58 68 65 65 71 71 71 71 77 65 77 68 65 58 55 61 71 61 61 65 58 58 48 55 48 45 45 39
0 0 0 0 0 0 3 0 0 3 3 3 6 16 19 23 45 45 52 65 65 68 68 61 65 68 74 71 68 68 68 61 65 74 71 71 61 71 65 65 61 61 58 55 52 48 39 42 35
0 0 0 0 0 0 0 3 3 3 6 10 10 16 19 35 39 45 48 61 61 68 68 58 52 61 77 71 74 65 71 71 71 74 74 68 61 68 65 58 55 55 55 55 58 48 42 39 39
0 0 0 0 0 0 0 3 3 3 6 10 10 16 23 29 42 48 55 61 61 65 68 68 68 68 68 71 77 74 77 77 71 74 74 65 65 61 55 52 58 52 48 48 45 48 45 39 42
0 0 0 0 0 0 3 3 3 6 6 6 16 23 26 29 39 55 58 61 61 61 68 68 65 71 68 65 74 77 74 71 77 74 65 65 61 58 58 55 61 52 48 45 45 39 35 29 29
0 0 0 0 0 0 3 3 3 6 3 10 19 26 29 29 35 48 55 58 61 61 65 68 68 65 68 68 65 71 71 71 71 61 52 52 55 55 58 52 55 45 45 48 39 32 29 29 23
0 0 0 0 0 0 3 3 3 3 6 10 13 29 23 35 39 48 55 58 61 65 58 68 68 71 71 68 71 71 68 68 58 55 55 48 55 52 39 52 45 45 42 39 39 29 26 23 19
0 0 0 0 0 0 3 3 3 6 3 6 13 29 29 29 39 45 48 52 55 58 55 52 58 58 61 65 68 61 61 71 55 48 52 48 48 52 45 48 48 55 52 32 32 29 29 19 16
0 0 0 0 0 0 0 0 6 19 13 10 16 26 29 35 32 42 52 55 52 61 61 58 58 58 58 65 58 55 58 42 45 52 39 52 45 45 48 48 42 48 45 39 32 32 32 26 19
0 0 0 0 0 0 0 0 6 13 16 16 19 26 29 35 35 42 48 52 48 58 55 55 58 58 61 65 65 58 55 52 45 48 39 42 35 42 35 42 45 48 42 39 45 35 32 29 29
0 0 0 0 0 0 0 0 3 3 13 19 23 26 32 29 35 39 42 45 48 45 52 55 61 58 58 58 61 61 58 55 48 48 39 35 39 32 32 32 42 39 39 42 39 39 32 32 32
3 3 0 0 0 0 0 0 3 10 13 19 29 26 29 29 32 35 35 45 35 42 45 52 58 61 58 58 58 61 65 58 52 45 42 32 29 32 42 26 35 35 42 42 42 45 39 32 26
0 3 3 0 0 0 0 0 10 13 19 26 35 32 29 26 29 29 26 32 42 45 48 48 55 58 58 52 58 58 61 58 52 52 42 35 35 32 35 35 32 32 32 35 42 42 32 29 29
0 0 0 0 0 0 0 13 19 19 23 26 29 29 29 26 29 29 29 32 35 42 45 48 52 58 58 52 52 52 52 48 45 45 42 32 39 35 42 42 39 35 32 29 29 32 32 29 29
0 0 0 0 0 0 0 3 13 19 23 26 23 29 29 26 23 29 32 32 35 39 52 48 45 48 52 48 52 45 45 42 42 45 42 39 39 39 35 42 39 35 32 29 29 32 29 26 26
0 0 3 0 0 0 0 0 6 26 29 19 23 32 42 29 26 29 32 32 35 35 32 48 45 48 48 48 48 48 42 45 42 42 39 39 39 42 39 42 35 32 32 26 29 26 26 29 19
0 0 0 3 0 0 0 0 13 26 29 26 29 39 29 42 35 32 32 29 32 32 32 42 39 42 45 45 48 45 42 39 39 42 45 45 35 35 39 39 42 35 35 32 32 29 26 29 26
Height
5890 5890 5891 5892 5893 5892 5892 5893 5893 5893 5892 5892 5891 5889 5888 5887 5887 5888 5884 5883 5883 5882 5881 5880 5880 5879 5879 5878 5878 5878 5877 5877 5877 5876 5876 5876 5876 5876 5875 5875 5875 5875 5875 5875 5876 5876 5877 5877 5877
5889 5890 5892 5892 5892 5893 5894 5893 5893 5893 5892 5891 5890 5889 5887 5885 5885 5884 5882 5882 5882 5881 5881 5880 5879 5878 5878 5878 5877 5877 5877 5877 5876 5876 5876 5876 5875 5875 5875 5875 5875 5875 5875 5875 5875 5875 5876 5876 5876
5889 5890 5891 5891 5892 5894 5894 5893 5892 5892 5891 5890 5889 5888 5887 5885 5884 5883 5882 5882 5881 5881 5880 5879 5878 5878 5877 5877 5877 5876 5876 5876 5876 5875 5875 5875 5875 5874 5874 5874 5874 5874 5875 5874 5874 5875 5875 5876 5876
5888 5890 5891 5891 5893 5896 5895 5893 5892 5892 5891 5890 5889 5887 5885 5885 5883 5883 5882 5881 5881 5880 5879 5878 5877 5877 5876 5876 5876 5875 5875 5875 5875 5875 5874 5874 5874 5874 5874 5873 5873 5873 5874 5874 5874 5874 5874 5875 5875
5887 5888 5889 5890 5893 5894 5893 5892 5892 5892 5890 5889 5888 5886 5884 5884 5883 5882 5881 5880 5879 5879 5878 5877 5876 5876 5875 5875 5874 5874 5874 5874 5874 5873 5873 5873 5873 5873 5873 5873 5873 5872 5873 5873 5873 5873 5873 5874 5875
5886 5887 5888 5890 5893 5894 5893 5892 5891 5891 5889 5888 5887 5886 5884 5883 5882 5881 5880 5879 5878 5878 5877 5876 5875 5874 5874 5874 5873 5873 5873 5872 5872 5872 5872 5872 5872 5872 5872 5872 5872 5871 5871 5872 5872 5872 5872 5873 5874
5886 5886 5887 5889 5892 5893 5892 5891 5891 5890 5889 5888 5887 5886 5883 5882 5881 5879 5879 5878 5877 5877 5875 5875 5874 5873 5873 5872 5872 5872 5872 5871 5871 5871 5871 5871 5871 5871 5871 5871 5870 5870 5870 5870 5871 5871 5872 5872 5873
5884 5886 5885 5886 5890 5892 5890 5890 5890 5889 5888 5887 5886 5884 5882 5880 5879 5878 5877 5877 5876 5875 5874 5873 5873 5872 5871 5871 5870 5870 5870 5870 5870 5870 5869 5869 5869 5869 5869 5869 5869 5869 5869 5869 5870 5870 5871 5871 5872
5883 5885 5885 5886 5889 5890 5889 5889 5889 5887 5887 5886 5884 5883 5882 5879 5878 5877 5876 5875 5874 5873 5872 5872 5871 5870 5870 5869 5869 5869 5868 5868 5868 5868 5868 5868 5868 5867 5867 5867 5867 5867 5867 5867 5868 5869 5869 5870 5870
5881 5882 5884 5885 5887 5886 5887 5887 5886 5886 5885 5884 5883 5881 5880 5879 5878 5875 5874 5873 5872 5872 5871 5870 5869 5869 5868 5868 5867 5867 5867 5866 5866 5866 5866 5866 5866 5866 5865 5865 5866 5866 5866 5866 5866 5867 5867 5868 5869
5879 5880 5881 5882 5883 5883 5884 5885 5884 5884 5883 5883 5881 5880 5879 5877 5876 5874 5873 5872 5871 5870 5870 5869 5868 5867 5866 5866 5864 5865 5865 5864 5864 5864 5864 5864 5864 5863 5863 5863 5864 5864 5864 5864 5865 5865 5866 5866 5867
5877 5878 5879 5879 5880 5881 5882 5882 5883 5881 5882 5880 5878 5878 5877 5876 5875 5872 5871 5870 5869 5869 5868 5867 5866 5865 5864 5864 5863 5862 5862 5862 5862 5861 5861 5861 5861 5861 5861 5861 5861 5861 5862 5862 5863 5863 5863 5864 5865
5874 5875 5876 5877 5878 5879 5879 5879 5880 5880 5879 5878 5877 5875 5875 5874 5873 5871 5870 5868 5868 5867 5866 5865 5864 5863 5862 5861 5861 5860 5859 5859 5859 5859 5858 5858 5858 5858 5859 5859 5859 5859 5860 5860 5860 5861 5861 5862 5863
5870 5872 5873 5874 5875 5876 5877 5877 5877 5877 5877 5876 5875 5874 5873 5872 5870 5869 5868 5866 5866 5865 5864 5863 5862 5861 5860 5859 5858 5858 5857 5857 5856 5856 5856 5855 5856 5856 5856 5856 5857 5857 5857 5858 5858 5859 5859 5860 5860
5866 5868 5870 5871 5872 5873 5874 5875 5875 5875 5874 5873 5872 5872 5871 5869 5869 5868 5866 5865 5864 5862 5861 5860 5860 5859 5857 5856 5855 5855 5855 5854 5854 5853 5853 5853 5853 5853 5853 5853 5854 5854 5855 5855 5856 5856 5856 5857 5858
5863 5865 5867 5868 5869 5870 5872 5872 5873 5872 5872 5871 5870 5870 5868 5868 5867 5865 5864 5863 5861 5860 5859 5858 5857 5856 5855 5854 5853 5852 5852 5851 5851 5851 5850 5850 5851 5851 5851 5851 5851 5851 5851 5851 5853 5854 5854 5855 5855
5860 5862 5864 5864 5865 5867 5868 5869 5869 5868 5869 5869 5868 5868 5867 5866 5864 5863 5862 5861 5859 5858 5857 5855 5854 5853 5852 5851 5850 5849 5849 5849 5848 5848 5848 5848 5848 5848 5848 5848 5848 5849 5849 5850 5850 5851 5851 5852 5853
5859 5861 5862 5862 5863 5864 5865 5866 5866 5866 5866 5866 5866 5865 5864 5863 5862 5861 5859 5858 5857 5855 5853 5852 5851 5850 5849 5848 5847 5847 5846 5846 5846 5845 5845 5845 5846 5846 5846 5846 5846 5846 5847 5847 5847 5847 5848 5849 5849
5855 5858 5860 5860 5860 5860 5860 5862 5863 5863 5863 5863 5862 5862 5861 5861 5860 5858 5857 5856 5854 5853 5851 5849 5848 5847 5846 5845 5844 5844 5844 5843 5843 5843 5842 5843 5843 5843 5843 5844 5844 5844 5844 5844 5844 5844 5844 5845 5845
5852 5854 5856 5859 5859 5858 5858 5859 5860 5860 5859 5859 5859 5858 5858 5858 5857 5856 5854 5853 5852 5850 5848 5847 5845 5844 5843 5842 5841 5841 5840 5840 5840 5840 5840 5840 5840 5840 5840 5841 5841 5841 5841 5841 5841 5842 5841 5841 5842
5847 5850 5853 5855 5854 5854 5855 5855 5856 5856 5856 5855 5855 5854 5855 5854 5853 5852 5851 5850 5849 5847 5845 5844 5842 5841 5840 5839 5838 5838 5838 5837 5837 5837 5837 5837 5837 5837 5837 5838 5838 5838 5838 5839 5839 5839 5839 5839 5839
5843 5846 5849 5850 5851 5851 5853 5851 5852 5852 5852 5851 5851 5851 5851 5850 5850 5849 5848 5847 5845 5844 5843 5841 5839 5838 5837 5836 5836 5835 5835 5835 5834 5834 5834 5834 5834 5835 5835 5835 5835 5835 5835 5836 5836 5835 5835 5836 5836
5839 5842 5844 5845 5846 5847 5847 5847 5848 5847 5847 5847 5847 5847 5847 5847 5847 5845 5844 5843 5842 5840 5839 5838 5836 5835 5834 5833 5833 5832 5832 5832 5832 5832 5832 5832 5832 5832 5832 5832 5832 5832 5833 5833 5833 5833 5832 5833 5833
5834 5838 5839 5840 5841 5842 5843 5843 5843 5843 5842 5843 5842 5842 5843 5843 5843 5842 5841 5840 5838 5836 5835 5834 5833 5832 5831 5830 5830 5830 5829 5830 5830 5830 5829 5829 5829 5829 5829 5829 5829 5829 5830 5830 5830 5830 5830 5830 5830
5830 5833 5834 5836 5836 5837 5839 5838 5840 5838 5839 5839 5839 5838 5838 5839 5838 5838 5837 5836 5834 5832 5831 5830 5829 5829 5828 5828 5827 5827 5827 5827 5827 5827 5827 5826 5826 5826 5826 5826 5826 5827 5827 5827 5827 5827 5827 5828 5828
5824 5827 5830 5832 5833 5834 5834 5834 5835 5834 5834 5835 5836 5835 5835 5835 5834 5834 5833 5831 5830 5828 5827 5827 5826 5826 5825 5825 5825 5825 5825 5825 5825 5825 5824 5824 5824 5823 5823 5824 5824 5824 5824 5825 5825 5825 5825 5825 5825
5819 5822 5826 5828 5829 5830 5831 5830 5830 5829 5830 5831 5831 5832 5831 5831 5830 5829 5828 5826 5824 5824 5824 5823 5823 5823 5823 5822 5822 5822 5822 5822 5823 5822 5822 5822 5821 5821 5821 5821 5821 5821 5821 5821 5822 5822 5822 5822 5822
5815 5818 5821 5822 5823 5825 5827 5827 5826 5826 5826 5827 5827 5827 5827 5827 5826 5825 5824 5822 5822 5820 5819 5819 5820 5820 5820 5820 5820 5820 5820 5820 5820 5820 5820 5819 5819 5819 5819 5819 5818 5818 5818 5818 5818 5819 5819 5819 5819
5809 5813 5815 5817 5819 5820 5822 5824 5820 5820 5822 5822 5823 5823 5823 5823 5822 5821 5820 5819 5818 5817 5816 5816 5817 5817 5817 5817 5817 5817 5817 5817 5818 5818 5817 5817 5817 5817 5816 5816 5816 5816 5815 5815 5815 5815 5816 5816 5816
5804 5807 5810 5811 5813 5814 5816 5820 5815 5816 5817 5818 5819 5819 5819 5819 5818 5818 5817 5816 5815 5814 5814 5814 5814 5814 5814 5814 5815 5815 5815 5815 5816 5816 5815 5815 5815 5815 5814 5814 5814 5813 5813 5813 5813 5813 5813 5813 5813
Wind_Speed
2 3 3 4 4 6 5 2 3 6 7 7 6 6 7 7 7 7 8 8 7 7 7 7 6 6 5 5 4 4 4 4 4 4 3 3 3 3 3 3 3 2 2 2 2 2 2 1 2
3 3 4 3 4 5 2 3 6 8 8 7 7 7 7 8 7 8 9 9 9 8 8 8 7 7 6 6 5 5 5 5 5 5 4 4 4 4 3 4 3 3 2 2 3 3 3 2 2
4 4 4 3 2 3 3 4 8 9 8 7 7 8 9 8 7 9 10 10 9 9 9 8 8 7 7 6 6 6 6 6 6 6 6 5 5 4 4 4 4 4 4 3 3 4 4 3 3
6 6 5 3 3 1 5 7 9 8 8 8 7 8 9 9 9 10 10 10 9 9 9 9 8 8 7 7 7 7 7 7 7 6 6 6 6 5 5 6 6 5 5 4 4 5 5 5 4
7 6 4 2 1 4 7 8 9 7 7 8 8 9 8 9 9 10 10 10 10 10 10 10 9 8 8 8 8 8 8 8 7 7 7 7 7 7 6 7 6 6 6 5 5 5 6 6 6
8 7 4 3 4 6 9 10 8 6 8 8 9 10 12 11 10 10 11 10 10 10 10 10 10 9 9 8 8 8 9 9 8 8 7 7 7 7 7 8 7 7 7 6 6 6 6 6 6
8 8 8 7 6 7 10 11 9 8 9 10 9 11 13 11 12 11 12 11 11 10 11 10 11 10 9 9 8 8 9 9 9 9 9 8 7 8 8 8 7 7 7 7 7 7 7 7 7
10 10 9 7 7 9 12 13 11 9 10 10 11 11 13 12 12 11 12 12 12 12 12 11 11 10 9 9 9 9 9 10 10 10 10 9 8 8 9 8 8 8 8 8 8 8 8 8 8
11 11 9 7 7 10 12 13 12 11 11 11 12 13 13 14 13 12 12 12 12 13 13 12 11 10 10 10 10 10 11 11 11 11 11 10 9 9 10 9 9 8 9 9 10 10 9 9 8
12 11 10 10 10 11 11 12 12 12 11 12 13 14 14 13 13 13 12 13 14 13 13 12 11 11 11 11 11 11 11 12 12 12 12 12 11 10 10 10 11 10 9 9 10 9 9 9 9
13 13 13 13 12 13 13 12 12 13 12 13 14 14 14 14 14 13 13 13 13 13 13 12 12 12 12 12 12 13 12 12 12 13 13 12 12 11 11 11 11 11 10 10 10 10 10 10 10
15 15 16 16 14 14 14 12 13 13 13 13 15 15 15 13 14 14 13 12 13 13 13 13 13 13 13 13 13 13 12 13 13 14 14 13 13 12 11 11 11 12 11 10 11 11 10 10 10
16 17 18 18 18 16 14 14 14 14 14 14 15 15 14 13 13 13 13 13 13 12 13 14 14 14 14 14 14 13 13 13 13 14 14 14 14 13 12 12 11 12 11 11 11 11 11 11 11
17 17 19 18 16 15 15 15 15 15 15 15 15 15 15 14 14 13 14 14 14 14 14 15 15 15 15 15 15 14 13 13 13 13 14 14 14 14 13 12 12 12 11 11 12 11 11 11 10
18 18 18 18 16 16 16 15 14 15 14 15 15 15 15 14 14 14 14 14 15 15 15 15 15 15 15 16 15 14 13 13 13 14 14 14 13 14 13 12 12 12 12 12 12 11 11 11 11
18 17 17 16 16 16 16 15 14 15 15 16 15 15 16 15 15 15 15 15 15 15 16 16 16 15 15 15 15 14 13 13 13 13 13 12 12 13 13 13 13 13 12 12 12 11 12 12 12
15 15 16 17 16 17 16 16 14 15 16 16 16 16 16 16 15 15 14 15 15 16 16 15 15 15 15 14 15 15 13 13 13 14 13 12 12 12 12 12 12 12 12 12 12 12 13 13 13
15 15 16 17 17 18 17 17 15 16 17 17 17 17 17 17 16 15 15 15 16 16 16 15 15 16 15 15 15 14 13 13 13 12 12 12 11 11 11 11 11 12 12 13 13 13 13 13 14
16 16 15 15 18 19 18 19 17 18 18 18 18 19 18 17 17 16 16 16 16 16 16 16 16 16 16 15 15 14 13 13 13 12 13 12 12 12 12 12 12 12 13 13 13 13 13 14 13
20 19 17 17 21 21 20 20 19 19 20 19 20 19 18 18 18 17 17 16 16 17 17 16 16 16 15 15 14 14 14 13 14 14 13 13 13 13 13 13 12 12 13 13 13 13 14 13 13
21 19 18 20 22 20 21 20 18 19 20 20 20 19 19 19 18 18 17 17 17 18 17 17 16 16 16 15 15 14 14 14 14 14 14 13 13 13 13 12 12 12 12 12 13 13 13 14 14
21 20 20 21 22 21 21 21 19 20 20 20 19 18 19 19 18 18 17 18 18 18 18 18 17 16 16 15 15 15 14 13 14 14 13 13 12 12 12 12 11 11 11 11 12 12 12 13 13
21 20 20 21 22 21 20 21 20 21 20 20 19 18 19 19 19 19 19 19 19 18 18 17 17 16 15 15 14 14 14 13 13 13 13 13 13 13 12 12 11 11 10 11 11 11 12 12 12
20 19 20 21 22 23 20 21 20 21 19 20 19 17 19 18 19 20 20 20 20 19 18 17 16 16 15 14 14 13 13 12 13 13 13 13 13 12 12 12 11 12 11 11 11 11 11 12 13
22 21 21 21 22 21 20 21 21 20 18 19 19 19 19 19 19 19 20 20 20 19 19 17 16 14 14 13 13 12 12 12 12 13 13 13 12 12 11 12 12 12 12 11 11 11 11 11 12
23 23 22 21 20 18 18 21 20 19 19 19 19 20 20 19 19 19 19 20 20 19 18 16 15 13 13 13 13 12 12 12 12 13 13 12 11 11 11 11 12 11 11 11 12 12 12 12 12
23 23 21 20 18 18 18 20 19 21 20 20 19 19 20 20 20 20 19 19 18 17 16 15 14 14 14 13 13 12 12 12 12 12 12 11 10 10 9 10 10 11 11 12 13 13 12 13 13
23 21 21 22 21 19 20 22 20 19 20 20 19 19 19 20 20 19 19 19 18 17 16 15 15 14 13 13 12 12 12 12 12 12 12 11 10 10 9 9 11 12 12 13 13 13 13 12 13
23 24 24 24 23 22 21 19 20 21 21 20 19 19 19 19 20 20 19 19 18 17 16 15 15 14 13 13 13 12 12 11 11 12 11 10 10 9 9 9 10 11 12 12 12 12 12 12 12
24 24 24 24 24 24 22 19 20 21 21 21 20 20 20 19 19 20 19 20 19 18 17 16 15 14 14 13 12 12 12 11 11 10 9 9 9 9 9 9 9 10 11 11 11 11 11 12 12
Wind_Direction
165 159 151 140 108 65 60 36 309 297 301 311 310 303 300 300 305 307 306 316 320 314 316 315 313 309 303 291 279 277 273 270 268 257 249 247 246 246 258 239 222 215 195 180 187 198 209 238 221
184 179 176 153 85 50 14 300 289 294 306 311 313 308 301 300 311 312 314 316 317 314 314 312 311 309 303 295 284 278 275 272 265 257 255 254 251 252 261 252 230 225 217 204 202 213 225 237 230
189 188 180 144 76 19 294 288 288 299 305 307 309 304 304 304 314 314 313 314 315 315 316 313 311 309 306 299 290 280 276 274 269 264 259 256 256 258 259 257 249 240 232 227 220 223 227 228 226
200 191 173 152 124 262 277 290 294 300 305 304 303 302 302 308 315 316 314 314 314 316 317 316 314 309 307 301 294 285 280 276 271 269 264 260 258 261 266 261 258 249 240 238 231 232 225 222 228
218 204 181 157 222 253 268 282 293 301 300 300 301 302 307 307 316 319 316 316 317 320 320 318 317 313 309 305 297 287 282 279 274 268 264 264 258 261 266 263 263 258 252 241 240 238 227 230 229
225 221 215 207 248 268 284 290 289 288 287 290 296 302 304 312 318 317 313 312 314 318 318 318 317 314 308 305 299 290 285 281 277 270 268 269 261 260 266 266 263 262 255 248 246 236 232 236 236
219 223 221 216 234 259 269 278 283 277 279 284 290 296 304 312 312 316 314 313 310 312 312 314 314 311 307 303 301 296 291 286 281 277 274 271 263 263 264 266 259 258 256 249 238 235 241 240 241
220 230 223 217 223 252 267 276 283 277 278 286 290 291 297 312 313 313 312 309 308 308 307 307 312 306 304 302 299 295 291 286 281 279 279 278 273 266 265 263 254 251 251 247 243 248 250 251 247
220 220 223 230 248 254 265 274 277 275 280 282 286 292 300 304 308 308 309 309 311 309 305 302 307 302 301 299 297 294 288 284 280 278 278 277 277 275 270 263 259 262 261 257 255 258 256 252 250
222 215 219 227 246 250 256 266 271 274 278 284 285 290 297 301 306 309 310 307 309 310 307 304 301 299 300 300 297 293 288 284 281 278 276 275 276 276 273 264 265 264 263 259 262 262 260 253 250
227 232 229 234 242 249 254 261 270 273 276 285 286 288 293 300 306 308 310 308 306 306 306 304 301 297 299 301 298 291 288 285 281 278 277 274 277 278 277 267 264 264 263 259 259 261 260 256 250
234 234 237 242 248 247 252 259 266 273 278 281 283 286 291 298 304 307 311 307 303 306 307 306 304 299 301 303 300 293 288 287 282 278 275 275 277 276 275 271 265 266 267 265 262 262 260 255 252
235 235 239 243 249 250 254 259 264 271 277 282 286 289 293 298 300 303 307 305 304 303 306 308 305 301 301 301 299 294 292 290 284 279 277 276 276 276 273 269 267 269 267 264 264 264 259 254 252
230 235 241 247 252 255 257 260 263 270 277 282 283 288 290 294 301 299 301 300 306 303 304 305 303 299 299 297 294 291 293 292 285 283 281 279 276 275 275 269 267 270 267 263 264 264 262 259 255
232 236 240 246 249 255 259 260 266 271 276 282 285 288 289 296 299 298 300 302 302 301 305 303 301 299 297 298 294 288 291 288 285 281 282 280 277 277 276 270 270 269 266 263 267 265 263 258 254
238 240 244 247 253 258 261 264 264 271 277 281 284 285 290 294 297 299 302 304 303 306 304 302 300 299 298 296 294 291 290 286 285 283 283 281 280 280 278 273 270 264 264 263 266 268 268 260 255
238 248 251 252 259 262 261 264 265 270 275 279 281 283 287 292 297 298 300 302 302 305 304 301 299 299 299 296 294 288 285 286 286 285 279 277 276 279 279 273 272 267 265 263 264 266 266 262 260
237 246 250 251 259 260 259 262 264 268 275 280 281 283 285 287 292 295 297 302 303 304 302 299 300 300 297 294 293 290 286 286 286 284 278 274 273 277 278 274 272 271 268 265 266 269 265 266 263
231 238 245 255 257 260 260 262 266 269 275 275 277 281 281 283 288 293 296 299 301 303 303 302 300 299 297 292 290 288 285 284 285 285 280 277 275 276 276 275 272 270 268 267 266 267 266 265 260
230 235 236 244 250 254 262 263 263 268 271 276 278 278 281 280 284 290 295 298 300 302 303 304 300 297 294 292 288 285 283 283 283 285 281 279 278 276 276 274 271 269 266 265 265 264 266 261 260
233 236 238 242 252 254 263 267 267 267 272 274 273 273 279 281 282 287 294 297 299 301 303 303 301 299 294 291 288 284 282 282 283 279 279 280 276 275 276 274 272 269 266 266 266 264 260 263 263
235 235 239 242 250 255 260 267 271 271 268 270 272 273 276 279 283 287 292 295 296 298 300 300 299 300 296 292 288 286 281 281 284 284 281 279 278 274 275 275 271 270 268 267 266 264 263 261 260
233 233 240 245 249 249 251 258 264 269 265 268 269 272 274 278 282 285 291 294 295 296 297 298 298 298 295 292 290 288 282 281 281 285 282 280 279 275 270 268 267 268 267 269 268 267 264 261 260
232 234 240 244 249 251 251 255 260 264 269 271 271 270 273 276 281 284 287 291 294 297 296 296 297 297 295 292 291 289 281 280 280 283 283 281 278 276 269 265 264 265 267 271 271 266 265 264 262
229 233 239 243 248 256 255 253 257 256 263 272 277 273 274 277 279 283 287 290 292 292 292 292 293 293 293 291 290 287 282 280 280 283 282 281 276 273 268 265 266 265 266 269 270 266 266 267 264
232 232 237 243 250 259 260 256 258 256 261 271 275 277 279 280 280 281 284 287 289 288 288 287 288 289 289 288 286 285 281 280 280 282 282 280 278 273 269 267 265 266 266 269 272 272 269 267 267
232 232 233 243 247 251 256 263 260 261 265 270 271 273 277 279 281 281 282 287 287 287 285 285 284 284 284 285 283 280 279 279 282 284 284 282 280 275 271 269 270 270 268 271 274 273 270 269 268
229 230 230 236 241 246 248 252 258 260 264 268 272 274 276 280 283 284 285 287 287 284 282 283 281 279 280 284 282 278 276 279 283 283 284 280 278 278 276 274 274 271 270 271 270 272 273 270 270
225 227 231 237 240 244 249 253 256 262 263 268 273 277 278 281 283 285 286 287 286 283 282 281 279 276 276 280 278 276 277 281 284 285 283 282 279 281 284 278 278 277 275 271 271 272 271 271 272
231 233 234 238 241 243 248 257 261 263 268 271 275 279 279 281 282 283 284 284 285 282 280 277 276 275 275 275 275 275 277 279 282 285 286 286 285 283 282 282 281 281 279 273 270 271 271 270 271